sat.trackr.live / text

‹ back to catalog

STARLINK-36266

NORAD 67984 · 2026-038Z

PAYLOAD ACTIVE UNKNOWN

§ Identity

Operator
Country
US
Launch date
2026-02-25
Launch site
AFWTR
Launch vehicle
Mass (kg)
RCS (m²)

Purposes: comms

External: N2YO · Heavens-Above · Gunter

§ Orbital elements

Epoch: 2026-09-19T18:03:50.799456Z

Period
93.91 min
Inclination
97.2854°
Eccentricity
0.0000134
Mean motion
15.33461012 rev/d
Perigee alt
465.4 km
Apogee alt
465.6 km
Semi-major
6,843.6 km
B*
6.4029e-4
RAAN
271.1763°
Arg perigee
174.0931°
Mean anomaly
186.0314°
Rev number
3,298

§ Raw data

STARLINK-362661 67984U 26038Z   26262.75267129  .00020663  00000+0  64029-3 0  99902 67984  97.2854 271.1763 0000134 174.0931 186.0314 15.33461012 32982

JSON: /api/v1/satellites/67984 · /tle

For live sub-satellite position, see the globe view (requires WebGL).

§ Visibility from observer

Set your observer location to see the next 7 days of passes ≥ 10°. The values pass through the URL so the page stays shareable.

No JS? Fill the form by hand. The geolocation button needs JavaScript.